Location: Dunedin
(45.8900°S, 170.5000°E)
Time: 15:35:29
(UTC+12:00)

ISS - Visible Passes

Search period start: 28 July 2021 00:00
Search period end: 07 August 2021 00:00
Orbit: 419 x 421 km, 51.6° (Epoch: 28 July)

Date Brightness Start Highest point End Pass type
(mag) Time Alt. Az. Time Alt. Az. Time Alt. Az.
28 Jul -0.7 05:10:34 16° ESE 05:10:34 16° ESE 05:11:20 10° ESE visible
28 Jul -2.8 06:43:33 25° WSW 06:44:55 35° SSW 06:48:09 10° ESE visible
29 Jul -2.7 05:58:12 37° SSE 05:58:12 37° SSE 06:00:50 10° ESE visible
30 Jul -0.8 05:12:50 15° SE 05:12:50 15° SE 05:13:35 10° ESE visible
30 Jul -2.5 06:45:49 20° SW 06:47:28 30° S 06:50:34 10° ESE visible
31 Jul -2.4 06:00:27 31° S 06:00:27 31° S 06:03:14 10° ESE visible
01 Aug -0.9 05:15:05 16° SE 05:15:05 16° SE 05:15:58 10° ESE visible
01 Aug -2.5 06:48:03 17° SW 06:50:09 32° S 06:53:19 10° ESE visible
02 Aug -2.4 06:02:43 30° S 06:02:49 30° S 06:05:56 10° ESE visible
03 Aug -1.1 05:17:24 18° SE 05:17:24 18° SE 05:18:38 10° ESE visible
03 Aug -3.0 06:50:23 16° SW 06:52:53 46° SSE 06:56:14 10° E visible
04 Aug -2.8 06:05:07 35° S 06:05:40 38° SSE 06:08:55 10° E visible
05 Aug -1.4 05:19:54 23° SE 05:19:54 23° SE 05:21:38 10° ESE visible
05 Aug -3.7 06:52:53 16° WSW 06:55:36 89° S 06:59:02 10° ENE visible
06 Aug -3.5 06:07:44 46° SW 06:08:32 63° SSE 06:11:56 10° ENE visible
